GFSSGP_prec_cthk_000.txt.gz
RH
11 9 13 17 18 16 25 44 54 54 60 49 38 39 47 53 56 68 71 63 57 48 49 51 47 44 43 43 46 47 46 41 42 44 46 46 45 40 38 37 36 36 36 36 33 27 21 17 15
13 10 21 15 18 24 38 50 45 44 39 32 31 40 50 45 49 50 50 52 47 46 45 42 42 41 40 43 41 36 35 38 40 38 37 33 29 26 26 25 23 21 20 20 19 18 16 16 18
22 12 15 18 21 27 41 45 47 53 39 38 32 45 52 46 47 44 42 51 45 42 42 37 38 38 35 31 30 33 34 31 30 29 28 23 20 21 21 20 19 17 16 13 12 11 13 17 19
9 13 12 17 26 33 41 53 47 44 28 38 44 46 44 48 41 38 37 40 44 39 32 28 24 22 23 24 26 29 30 30 28 25 21 18 17 18 19 17 18 19 15 12 12 11 10 13 18
23 17 19 27 41 39 45 47 35 39 53 39 38 62 53 45 39 32 34 38 38 25 20 19 18 17 19 21 23 24 23 24 22 18 16 16 18 19 17 18 20 18 14 13 12 12 11 11 11
16 22 31 34 42 43 45 38 50 55 55 35 42 49 50 39 35 31 28 31 28 22 18 17 18 18 17 17 18 19 19 18 16 14 15 17 19 18 18 22 23 20 19 19 18 17 16 14 13
32 30 39 41 45 45 41 34 30 31 35 35 39 49 43 37 32 26 24 24 22 24 18 19 18 16 13 14 14 13 13 13 11 12 17 20 20 20 20 22 23 22 22 23 23 22 21 21 21
32 34 39 48 45 42 27 25 26 32 37 29 35 45 37 32 25 24 21 20 22 26 28 25 21 15 17 13 9 10 11 11 13 17 21 22 28 30 31 30 30 28 28 28 28 29 28 28 27
26 32 40 36 34 31 18 15 16 19 27 29 31 31 29 24 22 21 19 20 23 28 27 28 26 24 25 22 16 17 17 22 25 31 29 39 41 44 44 43 44 44 43 41 40 40 39 38 38
26 24 25 24 22 23 14 16 10 10 16 16 20 33 31 27 21 21 21 21 25 30 32 31 29 23 23 30 30 32 32 33 36 39 41 54 47 47 48 48 46 47 44 44 40 39 40 40 38
24 26 21 18 16 17 13 15 8 14 14 15 15 15 28 25 23 22 22 28 33 37 41 41 27 24 36 34 40 44 43 43 44 47 44 44 44 50 49 48 48 47 46 46 43 41 42 41 38
27 24 23 18 9 9 9 9 7 11 15 13 16 18 34 32 26 30 35 40 40 46 48 43 28 26 30 40 44 48 49 48 52 52 51 48 49 48 45 47 46 47 46 45 45 42 40 38 37
26 20 15 8 5 9 10 10 13 11 12 12 17 23 34 36 38 40 41 52 41 50 45 45 39 30 33 34 45 46 49 57 51 55 52 47 48 47 45 46 46 47 48 46 45 43 43 41 38
14 11 8 8 10 9 10 12 11 16 13 13 17 24 32 41 44 46 41 41 56 49 45 47 55 51 43 41 45 50 52 53 54 56 54 52 51 48 49 49 49 49 51 51 47 45 44 42 41
13 16 14 13 15 16 12 19 19 20 18 16 16 19 31 39 45 47 40 42 46 43 47 71 85 60 57 43 46 52 53 52 56 59 60 59 58 54 55 54 55 56 55 52 49 48 47 45 44
14 21 27 22 19 18 16 32 29 25 20 18 20 21 23 38 47 48 43 41 42 51 58 81 89 60 53 50 53 54 54 56 61 66 66 64 63 61 59 59 59 58 56 53 50 46 44 45 45
19 29 32 30 23 22 22 38 36 28 22 19 23 28 26 29 42 49 43 43 44 43 46 68 66 54 56 58 56 58 59 61 67 70 69 68 70 65 65 64 61 58 58 56 53 51 49 52 50
34 26 27 21 23 15 18 28 31 27 24 21 22 26 33 34 38 51 53 51 57 52 48 51 58 59 70 71 62 66 64 66 73 72 71 67 73 69 67 66 63 66 64 59 54 54 52 42 39
29 24 23 32 23 19 19 24 26 25 26 26 26 27 30 37 38 47 54 58 54 54 55 54 58 72 80 75 63 66 67 74 73 71 68 71 72 69 72 70 69 65 63 60 56 50 45 43 41
26 23 26 25 20 16 30 30 28 27 29 29 28 29 33 37 40 43 48 51 55 52 54 60 64 66 67 70 69 70 73 70 68 69 70 71 72 81 86 83 73 68 66 62 56 55 49 43 39
24 21 29 27 24 18 25 38 33 35 33 33 31 32 36 38 41 45 50 54 55 54 57 60 62 66 70 71 73 72 68 65 64 70 81 76 76 78 74 72 67 60 54 52 47 44 43 42 40
28 25 23 20 22 34 31 35 45 44 43 42 38 34 37 40 41 43 46 48 48 53 60 65 66 68 71 74 71 68 66 69 75 72 64 59 59 59 60 59 57 54 50 47 45 45 46 44 41
28 26 22 22 24 25 33 35 46 49 50 49 45 42 40 44 48 51 53 54 56 59 62 66 68 70 67 65 66 67 69 69 64 60 55 56 56 58 57 53 53 52 49 48 48 49 47 47 52
23 26 26 27 29 42 33 42 58 53 54 58 51 49 44 47 49 53 56 58 60 63 69 72 69 64 62 63 64 63 60 56 58 59 60 58 60 58 57 57 55 53 53 54 56 57 59 56 54
28 34 44 58 61 51 46 42 52 46 52 55 53 49 48 51 56 60 63 66 65 65 66 65 64 64 65 65 62 60 61 62 64 65 64 64 60 63 61 61 60 58 57 59 58 56 56 53 48
33 34 49 52 58 53 43 34 55 47 50 48 43 47 52 55 56 59 60 60 62 62 59 59 58 58 60 62 63 65 66 66 67 69 72 68 63 64 64 57 51 52 49 50 47 45 49 51 54
35 37 25 37 45 42 28 53 58 54 56 53 53 50 56 61 62 60 70 72 63 63 61 57 57 60 65 66 64 61 61 65 71 71 69 71 72 69 61 54 49 49 40 41 44 50 56 57 61
30 28 40 49 56 49 44 46 66 62 67 65 55 55 56 64 71 74 75 68 65 65 62 63 64 62 65 68 63 65 72 73 70 70 67 68 57 48 41 42 38 38 42 47 53 56 63 69 75
39 45 35 33 41 49 51 44 49 55 55 53 56 60 62 59 64 71 72 65 64 64 63 66 64 66 66 65 67 74 74 70 69 65 53 45 38 29 28 33 36 41 49 52 60 71 76 79 83
30 35 34 47 47 54 55 43 47 53 58 67 66 69 67 63 62 61 63 65 65 70 70 68 67 68 68 69 70 70 70 68 61 50 44 37 30 32 38 44 45 47 52 55 59 61 63 66 74

GFSSGP_prec_cthk_003.txt.gz
RH
18 11 8 11 16 27 39 46 58 63 53 53 55 53 54 60 64 74 80 71 65 51 51 51 45 41 39 37 41 40 39 36 36 38 37 35 30 27 27 25 23 21 17 17 16 15 15 13 12
12 22 16 20 23 33 49 56 59 58 59 57 56 54 38 55 54 62 67 70 51 49 48 43 40 39 40 39 40 36 33 33 32 30 28 25 21 20 20 19 19 17 15 13 11 9 9 10 13
27 22 17 31 28 39 42 54 58 52 52 45 43 42 39 44 50 52 62 60 49 45 40 42 41 39 37 34 29 27 28 28 25 23 22 19 15 16 18 19 16 16 14 13 10 9 8 8 11
20 31 17 33 36 43 45 52 53 55 52 44 29 40 44 47 48 49 49 54 49 39 36 34 30 25 22 19 21 23 23 23 21 21 16 13 14 16 18 17 17 18 16 13 11 9 9 10 9
27 15 27 38 50 57 51 51 51 50 46 42 39 49 55 53 46 43 39 38 32 29 23 19 18 16 17 18 19 19 20 19 18 13 11 12 15 18 17 19 21 20 18 18 17 16 15 15 14
26 28 38 40 54 54 49 47 47 46 50 54 48 43 53 40 29 37 32 33 19 16 16 16 16 16 15 14 14 16 16 13 11 10 11 15 19 18 17 19 19 19 20 21 21 21 21 21 20
28 37 41 44 53 53 48 43 37 42 43 51 44 45 44 39 25 27 26 25 16 14 14 16 15 14 11 10 11 11 10 10 10 12 16 20 21 22 22 23 24 26 26 28 28 28 29 29 28
38 34 44 52 52 51 46 32 28 29 35 37 33 38 41 30 19 22 21 18 17 16 16 15 15 14 11 7 8 9 10 12 15 18 22 27 28 30 31 34 35 35 35 35 33 33 30 30 32
40 40 42 50 47 41 35 23 18 22 26 30 30 30 28 22 19 19 19 19 23 21 20 18 15 14 17 15 14 16 20 23 25 28 32 34 34 33 35 37 36 36 35 37 35 33 31 30 31
31 29 36 31 36 34 28 18 12 19 21 25 29 30 25 24 18 17 17 19 25 27 27 25 21 17 20 25 30 30 33 34 37 36 34 35 37 38 40 40 40 42 41 40 38 36 33 32 31
26 26 28 30 27 23 20 14 12 13 14 13 18 26 27 25 22 18 17 19 21 24 27 26 24 21 27 30 34 38 40 40 41 44 43 40 44 44 43 41 40 40 41 41 40 39 37 34 33
25 25 24 22 21 15 11 11 10 12 13 15 17 20 24 28 21 21 24 28 31 33 35 38 31 23 28 35 39 41 43 45 47 48 45 42 44 46 45 44 44 45 45 44 43 43 40 37 36
26 21 20 22 16 8 7 8 9 12 14 16 17 21 26 28 30 31 33 35 33 35 40 40 42 36 38 48 50 49 49 49 50 46 47 45 46 47 46 46 48 48 50 50 49 46 43 39 37
18 14 9 5 4 7 8 10 12 14 13 15 18 24 27 30 33 36 36 38 39 45 54 50 61 63 60 63 51 49 46 47 47 49 50 48 51 51 52 54 54 53 55 55 52 49 44 42 40
15 9 10 11 13 13 13 19 20 19 19 18 16 23 29 31 35 36 36 38 38 52 55 62 83 75 78 74 60 54 55 50 52 54 53 56 60 62 60 61 58 56 55 55 54 51 49 45 42
12 19 22 23 27 21 24 27 26 30 26 19 17 20 24 31 37 37 38 37 38 39 51 62 54 66 78 70 68 62 58 58 57 60 63 64 65 64 62 61 60 58 59 60 58 52 49 45 48
29 32 33 34 27 22 25 28 30 29 25 26 23 23 25 29 36 41 41 41 45 43 50 52 62 61 69 67 69 71 70 62 60 62 68 72 69 67 67 65 62 63 64 64 62 58 56 54 52
35 36 36 34 26 21 22 33 37 29 27 26 24 25 32 32 43 44 45 47 46 48 61 55 59 65 62 67 68 71 72 66 67 69 69 65 63 62 65 68 67 62 61 64 60 58 53 51 52
34 29 33 32 27 25 22 32 34 32 31 29 30 32 34 37 39 42 44 47 52 61 61 61 59 59 66 70 75 69 73 72 72 71 67 62 60 63 64 58 56 53 49 53 53 53 51 47 47
32 29 33 26 24 21 23 34 30 31 33 33 32 35 35 37 40 44 48 53 57 64 69 71 62 62 65 67 70 70 75 74 70 67 62 64 64 64 56 56 54 50 49 50 48 47 44 41 42
28 31 30 26 22 18 24 38 37 36 39 44 42 42 39 39 39 41 46 51 54 56 58 63 62 60 63 69 72 75 72 64 61 62 66 63 60 56 57 56 54 54 53 51 49 50 50 46 45
26 26 24 21 21 27 30 46 43 40 40 41 45 44 46 44 43 42 46 45 45 47 49 53 60 65 67 68 70 66 61 61 63 65 60 58 56 57 57 57 57 56 54 54 56 52 50 49 48
26 24 21 21 24 28 31 45 53 54 60 53 52 51 54 54 45 41 41 44 47 51 53 56 58 60 65 65 60 58 61 59 53 52 53 56 57 57 57 59 60 60 60 55 53 49 48 46 47
23 27 29 32 31 41 38 49 65 62 58 54 57 58 60 48 46 46 47 49 53 56 59 60 60 59 55 52 50 49 48 48 48 48 47 49 52 56 59 62 64 64 60 57 53 48 47 50 52
28 33 50 51 63 57 43 51 69 61 59 58 59 61 54 53 52 52 54 55 55 56 56 55 55 54 52 51 51 52 52 52 51 50 54 55 58 63 64 58 56 53 51 45 43 43 40 41 44
30 33 49 56 70 55 43 56 60 57 60 64 65 58 61 60 57 57 62 65 68 65 65 59 57 56 55 56 54 52 54 59 63 56 72 69 67 64 59 50 46 42 38 39 39 39 41 47 50
35 30 26 42 45 46 47 55 61 62 63 64 66 64 66 60 55 61 62 64 70 69 66 61 58 60 60 59 60 65 68 68 69 76 82 69 64 60 51 51 39 36 39 39 39 41 43 48 52
29 26 38 43 48 48 50 61 69 66 65 62 60 61 57 62 65 67 62 62 62 62 60 60 60 62 65 64 68 69 74 75 75 75 62 61 55 54 53 38 32 32 34 39 44 46 44 46 53
35 38 32 31 44 53 59 52 53 59 56 58 57 64 64 64 67 65 62 57 58 60 60 60 62 62 61 64 63 59 59 56 55 56 49 49 46 45 36 34 32 34 38 38 37 38 37 34 35
26 31 34 48 52 60 61 48 46 54 57 62 68 67 64 66 66 60 57 57 58 57 57 56 54 53 49 43 43 42 45 56 58 57 51 43 47 41 40 33 37 36 40 42 40 40 44 42 43

GFSSGP_prec_cthk_006.txt.gz
RH
33 27 13 16 36 29 42 52 65 57 56 63 59 63 65 67 58 71 76 69 68 62 55 51 49 43 39 36 37 37 35 32 30 30 27 23 21 16 14 16 15 14 12 11 11 10 9 10 11
32 24 17 14 29 35 50 58 64 68 66 65 60 62 64 68 60 63 68 61 58 57 54 50 44 41 39 37 35 34 31 26 25 23 20 18 14 12 12 13 11 11 13 12 9 8 8 8 11
26 28 21 26 26 32 54 57 62 63 68 68 60 65 65 69 60 56 62 57 59 62 54 45 41 40 39 34 30 25 22 22 21 18 17 13 9 10 12 12 13 15 14 13 12 11 11 10 10
33 34 38 38 35 39 45 50 58 57 64 62 56 51 50 44 44 47 55 54 53 52 47 40 38 37 27 20 19 20 19 19 18 17 11 9 10 12 13 14 17 17 17 17 17 16 14 13 13
30 38 31 44 50 48 51 54 56 52 60 59 52 53 50 52 44 46 50 49 44 38 34 28 24 18 18 19 19 17 17 17 15 10 9 10 13 15 14 16 17 18 20 22 23 24 25 25 24
27 32 41 49 51 55 58 60 57 57 55 54 50 48 43 46 27 38 40 32 30 22 19 18 17 17 16 15 14 15 14 12 10 9 11 15 16 16 17 20 22 25 26 28 30 31 30 29 29
31 30 42 50 57 63 55 52 52 50 50 50 49 39 39 39 33 33 33 20 16 16 15 15 15 15 12 11 11 11 10 9 10 13 18 19 24 26 28 30 30 31 33 32 32 31 30 30 30
36 37 41 49 59 55 56 51 46 45 47 40 39 32 33 28 28 29 29 20 17 15 15 15 14 10 8 8 8 9 12 15 18 22 27 30 30 30 30 30 31 33 35 35 34 34 32 32 31
39 41 41 45 50 52 48 43 36 36 35 30 28 29 25 22 21 22 21 18 16 17 17 15 13 15 13 13 16 21 24 25 28 30 33 33 35 34 35 35 35 35 37 38 37 38 37 36 34
38 34 40 45 53 47 42 38 28 23 25 29 29 30 27 18 18 18 17 18 19 21 21 21 19 17 20 26 28 30 33 34 34 36 35 36 37 38 38 37 38 39 39 40 40 39 39 40 39
31 29 30 34 44 35 31 20 20 14 17 16 18 23 24 21 23 18 18 18 19 28 28 30 25 23 27 30 34 37 38 38 39 39 36 38 38 39 41 40 39 38 40 41 41 40 40 40 39
27 25 24 33 28 26 23 13 13 11 12 14 17 18 23 25 24 20 20 25 36 36 38 39 33 28 29 35 40 46 46 45 47 45 42 38 39 40 42 43 44 45 46 45 45 43 41 41 38
26 26 26 25 22 21 14 9 9 10 11 15 18 22 23 26 30 29 28 32 35 35 40 45 40 38 37 42 55 55 50 51 53 51 48 42 41 45 50 52 52 53 53 51 49 50 48 45 42
27 19 17 22 21 11 8 8 9 13 16 19 19 21 23 29 33 34 32 33 34 37 40 48 43 56 56 53 63 62 58 62 55 55 52 51 49 52 56 58 56 56 56 54 52 51 51 49 47
20 15 6 10 16 9 9 14 17 21 21 22 20 22 27 31 32 33 33 34 36 38 38 42 46 51 52 59 59 61 65 67 62 63 60 58 55 61 64 61 59 57 53 54 52 51 52 52 50
13 15 19 22 21 18 20 23 28 27 22 23 25 25 28 32 35 38 43 45 43 44 51 58 56 62 63 56 56 64 63 64 68 67 65 63 67 69 67 62 60 59 56 55 55 48 46 49 50
26 22 26 26 28 25 23 25 30 23 24 26 26 29 33 38 41 47 51 47 47 47 55 59 84 70 68 67 67 61 67 75 79 71 70 74 76 75 72 68 63 60 59 51 49 46 44 45 42
32 31 28 36 32 29 33 29 27 29 31 27 28 30 31 32 40 48 55 55 52 52 67 76 71 73 81 74 66 67 74 74 73 75 75 76 70 67 64 64 65 60 54 52 50 47 45 44 41
37 34 31 35 36 34 36 33 34 36 36 36 36 35 37 40 44 48 51 53 58 68 74 71 79 82 71 66 71 75 74 75 75 75 77 73 69 66 67 63 56 53 51 52 49 46 45 44 40
40 36 38 36 31 31 36 37 40 41 40 39 41 42 46 53 52 55 59 66 75 70 68 70 67 65 68 74 75 74 73 73 76 79 75 71 65 61 56 55 53 51 51 49 50 49 46 45 46
38 38 36 34 29 27 33 40 44 46 43 41 43 48 54 58 58 60 61 60 60 62 64 61 63 65 67 70 72 72 73 74 73 67 65 62 57 53 50 48 48 48 48 48 51 53 55 53 51
28 36 36 32 26 29 34 51 49 47 46 45 51 54 57 58 58 57 54 50 47 50 51 53 58 62 63 64 65 67 67 63 58 56 52 50 48 46 46 49 51 52 53 53 55 55 52 50 46
26 25 24 22 25 26 37 50 54 51 50 50 55 58 58 57 53 48 47 46 46 48 49 51 54 57 59 58 55 51 49 48 48 47 46 50 54 56 53 57 61 65 63 48 42 45 46 46 48
24 25 30 32 31 40 43 49 58 56 55 59 65 61 61 57 49 47 48 48 50 50 51 53 53 51 52 51 51 49 47 47 46 48 51 54 57 59 58 69 63 61 55 44 43 41 41 42 42
24 31 46 49 55 54 47 59 61 60 61 63 66 60 58 56 59 61 55 52 51 53 58 59 60 60 56 52 49 49 48 49 52 55 57 67 65 78 58 60 56 56 46 35 34 35 36 36 44
31 33 49 55 63 60 51 58 56 59 64 68 60 62 62 67 61 60 62 60 60 58 56 54 54 57 57 56 58 58 59 61 60 64 65 75 72 73 57 55 49 46 41 32 28 26 28 32 37
31 29 29 40 46 46 48 49 51 54 59 62 72 73 66 63 58 64 67 67 64 58 55 58 60 63 62 61 62 65 67 62 60 61 42 42 43 49 56 60 52 37 28 30 35 41 38 32 35
23 25 34 37 40 48 50 52 58 58 60 60 59 56 57 61 68 70 70 67 58 60 62 63 62 61 61 62 60 57 50 43 39 36 39 52 56 61 70 68 55 47 50 51 51 52 30 34 37
30 30 31 33 41 48 58 51 46 51 51 52 50 54 62 72 75 73 71 67 63 64 63 60 61 59 58 57 48 36 36 39 42 44 45 53 62 84 79 71 72 68 59 53 52 43 34 38 40
25 30 32 42 42 52 56 50 46 49 53 59 61 63 67 79 77 72 70 67 67 64 62 63 60 56 51 41 36 36 38 40 44 46 49 56 63 71 80 88 80 72 61 53 46 36 43 40 40

GFSSGP_prec_cthk_009.txt.gz
RH
34 27 30 26 34 30 38 40 56 59 63 70 74 73 76 77 76 79 76 69 73 67 62 58 58 52 45 41 37 38 35 34 29 27 24 19 17 12 11 12 11 10 11 10 9 8 8 8 11
35 31 33 24 34 38 52 59 64 65 61 66 76 77 77 83 81 79 76 71 60 58 55 57 58 44 41 39 39 37 33 28 23 21 19 16 10 9 11 11 12 13 13 13 13 12 11 11 10
37 35 29 27 32 48 54 66 68 69 71 72 73 71 75 76 71 75 66 60 57 60 56 57 47 40 39 40 36 29 23 21 21 19 15 9 9 10 12 14 16 16 16 16 16 16 16 14 14
33 35 33 25 27 30 53 59 56 64 67 63 78 70 68 63 58 56 51 50 53 56 53 50 40 40 41 32 23 20 19 18 18 16 8 9 11 13 15 16 17 18 19 21 22 23 24 25 24
28 33 36 39 40 42 42 54 64 64 66 67 63 66 67 64 58 55 50 50 52 51 46 40 38 31 21 20 19 18 17 16 14 8 7 11 14 16 18 21 22 24 26 28 28 28 28 28 27
30 37 39 49 53 51 56 61 61 66 66 63 63 59 58 60 57 51 47 46 46 41 33 23 20 20 19 18 16 15 13 10 8 8 13 18 21 24 27 28 31 31 31 31 29 28 28 27 28
30 36 43 53 59 58 60 60 64 66 64 62 57 56 58 51 55 43 34 37 31 21 17 18 17 16 14 11 11 10 9 9 11 17 21 25 28 30 32 32 32 32 32 32 31 30 29 28 29
29 36 41 64 61 61 57 59 58 49 50 49 43 40 39 35 37 33 24 19 18 18 16 15 13 9 8 9 9 11 14 17 21 25 28 30 33 34 32 32 32 33 35 37 37 35 34 34 33
36 35 45 51 57 64 58 53 50 48 42 35 32 30 25 27 27 26 20 17 16 14 13 12 11 10 10 13 16 20 22 24 26 29 32 34 33 33 34 36 36 38 38 40 38 37 38 38 37
36 39 43 49 50 54 49 43 42 39 36 30 29 32 30 24 21 20 17 13 13 14 15 15 15 15 18 21 24 28 30 31 31 31 31 32 32 35 35 37 40 42 44 45 43 41 42 43 42
35 36 42 44 53 54 44 39 27 26 26 22 19 24 24 19 17 18 15 13 14 19 22 22 20 22 26 29 29 33 36 41 43 41 38 37 39 36 36 38 41 45 47 47 48 48 48 46 45
34 32 33 42 44 38 30 25 23 14 15 16 16 18 23 23 24 22 21 19 25 33 32 33 26 29 30 34 38 43 48 53 50 50 45 45 43 41 40 41 44 48 51 50 50 51 53 50 49
29 27 27 28 31 26 23 19 13 10 12 18 20 23 23 28 32 29 27 27 31 31 36 36 34 33 41 45 47 51 56 58 56 53 52 50 50 48 46 48 51 54 54 50 49 49 51 49 47
27 25 24 22 23 23 16 10 10 11 20 22 22 23 25 30 33 34 34 31 32 34 34 39 39 36 46 50 49 54 52 52 52 53 55 56 54 53 55 58 61 61 59 53 53 51 51 47 46
26 23 12 18 19 15 8 10 12 18 24 24 25 25 29 35 37 36 38 37 38 39 42 45 52 52 55 67 65 62 59 59 58 56 62 60 59 62 66 67 68 60 56 53 51 50 47 45 44
25 18 21 19 16 13 15 18 20 26 26 26 28 32 35 36 38 40 46 43 43 45 51 61 67 83 88 81 74 77 71 63 62 66 73 72 73 73 73 70 64 57 55 53 52 46 44 44 42
22 22 28 29 26 23 20 25 32 28 26 29 34 34 34 36 38 41 56 64 60 55 58 76 89 88 82 88 86 81 69 67 76 79 79 76 75 77 72 67 63 58 53 48 45 41 40 41 41
24 31 28 30 26 28 28 29 29 26 25 33 35 36 35 35 42 44 51 55 61 61 68 82 82 81 86 84 76 69 73 79 79 78 75 76 77 73 68 69 60 50 48 44 41 39 38 39 38
28 29 30 35 35 35 34 36 37 33 37 39 37 38 40 43 47 48 52 57 62 65 70 74 76 74 78 71 72 75 78 75 78 75 78 77 73 70 62 53 51 49 45 40 39 41 41 40 39
36 31 30 31 36 34 37 40 42 39 42 42 41 48 49 54 55 59 61 68 70 68 67 75 71 70 71 68 70 74 80 78 76 75 77 72 64 58 54 51 48 43 42 44 45 46 43 42 43
42 39 37 38 38 36 34 43 45 45 48 48 49 55 58 61 64 68 67 67 67 69 64 60 60 66 67 70 70 66 66 68 69 68 63 57 52 50 48 48 50 50 50 49 48 50 52 54 54
43 40 37 39 40 44 35 54 48 50 55 56 55 59 63 63 64 59 60 55 54 53 52 53 54 56 58 60 61 63 64 64 60 55 52 52 54 52 51 52 52 53 55 59 54 46 40 38 37
32 33 36 38 39 38 38 46 47 53 56 57 58 64 63 68 63 58 52 54 54 56 55 56 58 60 62 59 59 59 57 54 52 52 52 52 52 51 50 56 60 64 57 54 52 48 33 32 35
27 31 35 37 36 44 39 45 51 52 55 62 64 64 65 69 60 56 59 64 62 55 53 58 63 64 65 62 57 55 54 52 51 53 54 54 55 56 58 70 57 57 58 53 54 48 32 31 33
27 32 44 45 49 50 42 50 51 49 54 60 64 65 68 62 66 68 65 58 58 59 60 57 57 54 51 52 53 52 53 57 59 59 57 58 56 49 46 43 45 49 51 48 41 37 37 39 42
29 33 44 46 56 45 44 53 52 52 54 56 56 56 60 65 75 65 56 60 64 65 63 56 52 52 56 57 56 56 56 61 59 58 54 49 40 37 42 51 59 60 66 58 51 50 52 50 50
29 30 33 45 52 52 50 45 46 47 50 52 53 56 64 71 58 53 61 68 66 66 60 57 56 56 57 57 59 55 53 51 45 42 37 36 36 40 51 62 69 74 75 70 65 57 65 59 45
27 28 33 37 39 46 45 44 46 44 48 50 54 57 54 53 57 62 70 76 72 69 65 63 64 64 62 57 51 47 43 40 35 34 33 35 40 46 51 54 56 67 74 74 71 65 63 53 50
31 28 30 34 41 45 53 46 37 41 43 47 49 46 50 57 63 66 72 76 77 79 74 69 66 64 60 54 44 36 31 30 30 27 26 31 39 47 54 50 58 75 71 69 74 70 61 50 43
26 27 28 36 38 49 50 40 34 38 42 44 49 52 58 62 67 71 78 79 84 78 71 70 67 63 57 45 40 36 34 29 24 21 23 33 43 48 52 56 62 65 71 65 61 62 49 46 47

GFSSGP_prec_cthk_012.txt.gz
RH
32 30 32 41 42 39 40 42 59 66 71 71 69 70 76 84 80 83 82 81 78 76 64 60 60 57 52 45 37 38 39 37 30 26 23 18 13 10 10 11 11 11 12 13 13 13 12 11 9
33 34 33 31 32 39 41 48 69 74 73 73 76 81 79 89 86 83 85 83 79 74 63 58 60 56 49 39 39 39 35 29 23 22 19 12 10 9 11 13 14 15 15 16 16 17 17 17 16
35 38 36 35 30 36 46 63 69 77 74 72 74 82 83 82 77 82 87 78 71 61 62 64 59 51 43 40 38 31 24 20 20 18 12 10 10 10 13 15 16 17 18 19 20 21 22 23 23
35 37 38 31 22 41 46 68 69 78 77 72 67 75 76 80 72 75 75 69 65 64 62 60 55 43 40 38 25 18 18 18 17 11 9 10 11 15 17 19 20 21 23 25 27 28 27 26 25
34 35 36 34 31 38 42 60 70 73 75 72 61 67 72 70 68 62 58 60 63 62 61 55 44 40 29 18 16 17 17 15 11 8 10 15 19 21 22 25 27 29 29 28 27 26 26 27 26
33 32 37 42 45 40 47 55 65 74 71 70 66 66 66 64 62 60 58 59 59 59 52 44 31 20 18 18 16 15 13 10 8 13 19 22 24 26 28 29 30 29 29 29 29 28 27 27 27
36 32 37 49 59 56 54 64 73 67 66 61 67 59 57 59 56 55 56 55 50 44 28 20 20 18 16 13 12 10 10 11 16 21 25 28 31 31 30 30 31 31 33 34 33 33 32 31 31
38 35 41 54 63 69 66 66 63 62 59 56 50 48 41 36 46 35 40 40 29 21 21 18 15 11 9 10 10 12 15 18 23 28 30 32 33 31 31 32 33 35 37 37 40 39 37 36 35
33 35 41 52 62 63 58 55 64 58 55 50 42 36 27 28 32 27 26 22 20 18 15 11 9 10 11 13 15 18 21 25 29 31 33 33 32 31 31 33 34 36 39 41 44 44 42 42 42
37 40 44 51 56 65 61 50 56 52 49 43 36 33 30 27 24 20 17 14 14 13 12 13 13 13 16 18 22 27 29 32 37 39 42 42 41 40 38 39 39 40 45 45 46 44 44 44 44
37 38 35 40 57 56 52 49 52 40 36 30 25 27 29 24 22 18 15 12 12 14 16 17 18 21 23 26 31 34 37 40 45 48 51 50 49 48 46 44 44 44 48 49 49 47 44 44 44
36 37 40 44 48 43 39 44 42 29 21 21 18 19 21 22 22 20 18 16 18 25 26 23 23 28 32 35 37 42 48 52 53 53 48 46 49 51 52 50 49 52 53 53 53 49 47 46 46
34 35 32 35 38 39 34 34 28 20 20 24 24 22 26 29 30 29 25 23 30 31 32 34 31 34 41 46 50 54 58 56 55 57 52 51 54 56 55 54 57 62 61 57 53 49 47 47 45
31 29 31 33 36 33 24 22 15 14 23 24 23 24 29 33 35 36 35 36 36 38 42 45 47 41 47 54 59 66 73 70 68 66 59 60 64 65 64 62 65 68 65 61 56 51 48 47 46
29 24 19 19 22 26 18 11 15 24 28 24 27 32 34 37 40 40 40 42 43 46 46 49 57 59 66 70 77 82 88 82 78 72 70 75 74 70 68 70 71 68 64 60 55 49 44 41 37
27 19 14 18 16 14 10 16 19 32 31 29 33 34 34 37 40 41 46 49 47 48 49 59 73 78 84 86 83 87 82 87 83 74 73 78 72 73 75 74 72 66 57 55 49 46 43 39 35
29 26 22 18 16 17 20 28 30 32 37 32 35 37 38 37 43 46 49 53 57 59 59 63 76 81 91 94 92 89 81 84 77 82 81 81 78 78 74 70 61 64 59 49 43 41 38 34 33
24 24 27 26 24 28 26 38 40 35 36 37 39 41 42 44 47 52 56 56 57 58 60 69 77 85 91 91 80 79 80 78 84 84 83 79 74 70 70 73 65 52 47 46 45 41 39 38 37
25 30 36 32 25 35 41 42 42 38 36 40 41 44 46 48 52 55 54 60 60 66 70 73 84 86 79 75 74 75 75 80 78 73 71 71 72 69 60 52 48 47 46 44 43 44 44 43 41
29 32 34 34 34 36 44 43 40 39 36 37 38 43 50 51 53 54 60 65 71 71 73 80 72 70 72 73 73 70 64 63 61 62 62 60 54 48 44 45 47 47 47 47 49 48 49 48 45
37 32 34 37 39 41 42 43 41 41 41 43 44 48 53 56 62 67 71 74 71 67 62 57 58 60 61 61 58 59 60 59 59 57 55 49 46 47 48 50 51 50 50 49 54 52 45 42 43
40 40 36 42 43 50 42 56 45 46 47 48 50 53 55 56 57 62 63 58 53 50 51 57 58 54 56 58 61 64 64 61 56 52 49 49 51 55 57 56 52 50 50 46 46 43 41 36 35
37 39 38 40 43 45 45 52 45 50 52 54 56 57 57 58 60 61 60 57 57 58 60 55 53 55 58 60 58 57 53 52 53 54 54 56 56 56 54 49 46 42 41 38 39 38 41 37 34
27 33 40 43 43 47 38 42 45 49 46 53 57 59 61 61 56 59 61 66 70 62 57 59 61 60 53 52 52 54 56 58 58 57 56 57 53 49 42 40 39 38 42 41 43 45 44 40 38
29 33 45 46 53 50 39 42 37 40 47 54 58 60 62 58 55 60 68 68 63 63 62 63 65 60 56 56 59 60 61 60 58 57 55 52 43 34 30 31 37 39 36 48 49 55 73 67 60
29 34 45 45 53 43 40 46 41 41 45 51 55 56 56 57 59 66 74 58 58 63 67 70 68 66 63 60 59 57 53 51 48 44 37 32 30 30 29 31 32 38 46 51 49 57 56 63 53
31 34 35 47 50 51 49 41 42 44 43 45 46 50 53 56 60 59 55 58 61 63 66 71 71 70 66 58 55 52 50 45 39 34 30 27 24 24 31 35 40 62 57 62 59 55 65 61 55
33 32 35 40 37 43 42 40 41 38 39 41 44 47 52 53 52 55 56 57 59 61 67 66 78 74 69 65 61 55 47 42 36 30 26 22 19 24 32 40 52 61 57 54 52 57 52 56 54
33 31 31 33 40 43 50 41 32 35 37 41 44 46 50 53 54 57 59 61 65 68 74 84 73 71 71 65 57 50 45 41 33 27 23 20 20 30 35 46 43 44 48 42 43 50 57 57 46
30 29 28 35 30 46 47 35 29 33 36 38 42 47 51 54 57 59 63 68 72 78 78 72 75 77 67 58 52 49 44 36 31 26 22 20 20 28 33 37 38 48 50 47 54 64 64 60 43

GFSSGP_prec_cthk_015.txt.gz
RH
22 21 24 30 32 33 36 44 52 68 73 70 63 64 69 69 70 77 80 78 84 81 76 70 70 66 58 52 47 39 37 34 26 21 19 14 11 9 11 12 13 14 14 15 16 16 17 17 16
22 24 31 32 34 37 42 46 61 70 76 81 75 72 75 78 76 90 86 83 82 85 74 67 67 68 58 52 43 40 35 26 20 19 15 12 10 11 13 14 15 17 17 18 19 19 19 19 20
22 29 34 33 35 31 44 59 62 69 73 73 82 81 83 83 83 92 81 83 89 86 72 69 71 65 58 46 43 36 24 19 17 14 12 10 11 14 15 17 19 20 21 22 23 23 22 22 21
25 34 37 40 34 31 50 68 64 66 71 73 71 72 79 83 82 81 92 93 88 77 75 73 68 58 48 43 38 21 18 17 13 11 10 11 16 18 19 22 25 26 27 25 25 23 23 22 22
28 33 38 37 32 28 38 70 76 69 62 67 67 70 71 73 83 88 88 90 83 72 72 71 60 50 45 34 19 18 18 14 10 10 14 19 21 23 26 28 28 27 27 26 25 25 25 25 25
25 33 36 38 46 37 45 60 69 68 65 69 70 63 64 69 80 79 78 77 74 68 66 62 49 42 24 20 19 17 15 9 10 16 21 23 26 28 28 30 29 30 29 30 31 30 29 29 29
24 32 35 47 52 48 45 62 74 67 63 65 71 62 57 64 71 71 70 72 67 63 58 44 28 22 20 19 16 12 11 12 19 24 26 28 30 30 31 32 32 31 32 33 35 35 33 33 33
28 33 40 52 55 60 57 72 70 76 66 64 63 57 51 49 56 54 58 60 55 45 30 24 21 20 15 14 12 14 17 20 25 28 31 30 31 30 32 34 36 38 39 39 38 38 39 37 37
30 38 44 50 57 65 69 64 64 61 63 67 58 46 36 39 39 46 48 39 28 25 21 18 14 13 13 15 19 21 23 27 32 34 35 38 38 39 43 44 45 45 45 45 44 44 44 42 40
29 41 39 50 59 60 64 62 61 61 70 60 50 36 32 30 28 33 29 25 19 16 15 14 14 16 20 24 25 28 30 36 39 40 42 45 47 49 49 50 49 51 50 51 49 49 47 44 42
39 38 37 51 54 61 53 48 53 60 51 35 29 31 28 27 25 22 18 13 14 16 17 17 18 21 25 30 36 38 38 42 42 46 49 46 49 50 51 52 52 53 53 53 55 53 49 44 42
39 42 41 46 49 47 45 44 47 44 33 27 24 21 19 24 19 14 14 16 20 24 21 23 26 29 31 38 42 45 50 52 56 55 51 53 51 52 56 59 56 54 57 58 58 56 53 48 42
39 38 38 40 43 45 39 36 39 34 26 26 25 27 26 27 29 27 24 24 28 32 32 34 35 42 45 48 52 58 63 64 62 66 65 63 61 61 64 67 65 63 63 65 60 57 53 48 43
35 36 32 35 41 42 34 31 27 27 29 26 26 32 35 35 36 36 31 32 36 41 44 48 45 44 49 56 60 65 80 85 82 85 87 88 78 72 77 74 71 73 73 67 63 57 52 47 39
31 28 25 34 35 38 28 24 20 26 31 32 41 40 39 42 43 43 40 40 43 50 56 57 70 70 68 77 83 84 82 79 79 86 89 86 87 83 79 81 78 75 71 63 59 55 46 39 36
30 24 17 20 30 32 18 17 25 33 35 37 37 39 40 43 44 47 50 53 55 59 62 63 72 83 88 88 92 80 81 86 85 82 86 86 85 85 86 81 72 67 66 62 56 46 41 39 38
29 25 19 21 23 20 16 24 30 35 38 38 38 39 41 45 46 50 52 56 58 62 64 68 77 80 87 89 90 83 80 81 81 78 80 82 83 76 72 69 66 64 59 49 44 41 38 37 36
28 29 25 21 20 22 29 38 38 41 43 43 40 43 43 45 48 49 54 58 60 61 63 67 77 81 87 85 76 71 76 75 73 73 72 71 69 66 64 60 56 49 43 42 43 42 41 40 40
24 24 29 30 32 38 41 39 42 41 39 42 44 45 48 49 51 53 56 57 58 62 69 72 80 83 80 72 75 73 70 69 64 62 58 55 55 56 55 52 47 46 47 48 47 46 43 41 40
29 30 39 37 36 34 39 43 42 37 37 38 42 45 48 51 52 53 57 62 65 75 84 75 70 67 64 63 64 59 56 53 53 54 55 54 52 50 49 50 51 51 51 51 49 45 40 36 31
38 39 39 40 42 39 37 40 41 37 37 37 39 41 44 48 52 58 65 67 64 62 60 56 53 56 60 56 52 53 55 54 53 51 50 51 53 53 52 52 52 51 50 45 39 36 33 32 30
37 39 38 44 45 47 40 36 44 42 40 42 44 48 54 58 60 60 60 58 62 55 54 56 57 55 55 55 54 51 51 52 53 55 58 59 58 56 54 50 46 39 36 33 30 28 31 33 36
38 42 41 38 37 38 40 38 39 44 45 46 47 51 56 57 56 54 55 54 53 56 62 60 63 60 58 57 56 56 57 59 60 62 63 62 59 55 49 41 34 28 25 25 27 30 38 38 42
40 37 41 42 39 39 38 38 36 44 41 46 50 54 56 53 57 58 54 55 59 69 57 50 54 58 64 66 69 66 66 64 60 61 59 53 47 39 30 27 26 25 25 32 39 42 52 46 41
31 33 39 41 45 39 39 39 29 31 37 45 49 52 55 57 56 56 55 62 59 53 52 55 60 64 66 68 72 68 61 57 54 51 43 40 35 29 26 26 26 30 33 39 44 56 51 45 39
30 30 39 43 45 38 37 40 31 35 39 48 51 53 51 49 52 56 57 61 52 53 55 58 61 65 65 64 65 63 60 59 54 46 42 37 30 25 21 20 25 33 39 40 55 55 45 38 37
31 31 33 41 44 42 39 36 34 38 40 44 45 45 48 50 52 56 57 53 54 55 58 62 62 65 66 68 64 63 62 53 49 47 40 32 26 22 20 22 29 35 46 40 46 44 34 33 39
33 31 36 39 41 38 32 35 28 32 32 35 39 41 44 48 54 55 53 54 55 59 61 66 66 72 71 68 69 61 53 53 50 43 36 28 23 21 22 29 36 47 46 42 42 36 39 43 52
35 35 34 32 36 31 33 24 26 27 28 30 34 39 43 48 51 54 57 57 60 64 68 69 73 81 73 68 61 57 56 50 47 37 29 26 24 22 25 34 38 42 43 43 50 46 48 54 55
35 32 28 31 30 37 37 25 23 25 27 31 35 40 44 49 53 57 60 64 66 69 71 75 80 70 69 66 64 57 54 49 41 34 29 27 25 24 27 34 40 41 41 51 51 51 59 60 63

GFSSGP_prec_cthk_018.txt.gz
RH
20 20 18 24 29 28 32 35 44 60 66 70 69 70 67 69 67 70 76 77 79 80 81 77 69 66 58 54 50 44 38 33 25 21 17 13 10 11 12 13 14 15 16 17 17 17 18 18 18
19 17 21 28 30 32 35 32 48 68 70 73 70 70 69 66 70 71 77 83 82 85 84 74 70 70 63 58 50 45 37 28 22 17 15 11 10 13 14 15 17 19 20 20 21 21 21 21 20
17 18 27 31 31 34 38 55 60 60 62 66 75 73 75 75 77 81 75 80 85 89 86 76 71 69 66 59 51 46 30 22 16 15 13 10 14 16 17 19 21 23 22 23 23 23 21 21 21
18 22 29 33 34 32 49 64 61 64 67 74 74 76 82 76 82 81 84 87 91 91 94 78 76 75 66 54 54 31 22 18 14 12 10 15 19 19 22 24 24 23 23 24 23 22 22 24 23
20 28 33 37 36 34 45 65 68 67 70 64 68 73 67 72 75 82 84 91 98 85 90 84 85 79 63 62 32 21 21 15 12 11 15 20 22 24 25 26 25 26 28 28 27 27 28 27 26
24 28 32 38 46 42 31 63 69 68 72 68 67 71 67 64 73 82 74 89 95 87 87 90 85 69 59 32 22 22 17 11 11 17 22 24 28 28 28 27 29 29 31 33 33 33 32 32 31
26 25 31 43 55 51 44 57 65 69 66 68 65 66 62 64 74 81 89 84 81 78 79 80 70 55 34 25 23 19 13 12 20 25 28 30 30 31 31 31 32 35 38 39 40 40 39 37 37
26 25 35 48 59 58 57 57 70 72 64 68 70 63 57 60 71 73 77 79 75 74 75 62 47 34 28 22 18 14 16 22 27 31 33 34 33 36 37 40 42 44 45 45 45 44 42 40 38
25 25 38 55 60 56 59 58 59 67 68 71 64 58 45 57 61 72 75 73 72 66 45 33 31 28 24 23 18 22 23 28 34 36 40 40 47 47 45 45 50 52 50 49 50 48 47 45 42
27 29 38 54 57 63 58 61 60 65 71 68 68 49 42 44 52 58 59 57 39 32 27 23 20 19 22 26 25 27 30 39 44 45 44 50 47 51 51 49 50 51 51 51 51 50 51 52 48
27 32 39 48 57 53 55 55 61 65 65 51 45 41 41 38 45 44 38 34 29 27 24 21 19 21 27 32 35 37 39 43 46 45 49 54 53 55 58 58 58 56 54 58 57 57 55 49 48
30 35 42 48 53 52 50 48 51 57 54 40 34 38 29 31 34 31 27 30 29 26 26 20 21 25 28 36 40 43 47 49 55 54 56 56 60 63 65 67 67 64 64 64 64 62 54 51 46
40 42 42 45 46 52 46 43 44 49 35 32 30 33 29 29 33 31 30 33 38 33 30 27 29 30 33 39 44 50 56 63 69 68 68 69 75 77 76 76 76 77 76 71 69 65 56 52 50
40 41 38 42 45 41 38 32 36 35 36 36 33 35 37 39 40 36 36 41 36 37 39 34 39 44 46 58 62 66 76 84 84 90 89 86 89 89 86 86 85 86 83 74 67 62 56 54 51
38 36 36 37 46 48 31 29 23 32 35 40 42 40 45 45 43 39 40 40 39 45 51 53 56 60 69 76 81 84 84 80 80 87 87 90 92 85 87 87 88 82 73 69 62 56 53 51 45
33 31 28 32 37 42 29 27 24 29 38 41 44 46 49 48 46 48 44 47 50 60 64 66 71 75 85 86 88 89 80 81 85 86 83 84 86 81 82 77 73 65 59 55 55 51 46 45 42
31 23 19 23 32 34 20 23 27 34 40 45 47 49 48 48 50 53 56 58 60 64 69 70 71 78 81 88 91 91 85 79 79 72 70 74 73 71 65 59 56 55 53 51 50 47 44 45 43
30 31 20 20 26 22 23 30 30 38 43 45 45 46 49 52 54 55 57 59 64 68 71 71 74 78 85 91 88 77 70 67 67 67 63 58 56 55 53 52 51 51 51 51 50 48 46 43 41
28 30 29 25 23 24 31 39 40 43 47 47 46 45 47 49 50 50 51 57 59 60 64 70 77 86 78 75 70 65 62 61 57 53 51 50 50 50 51 50 51 53 54 51 49 49 48 43 39
26 28 38 38 37 36 36 38 41 39 40 42 44 44 46 49 50 51 55 58 63 69 73 79 82 74 69 65 62 57 54 53 49 48 49 52 53 55 58 59 60 58 55 52 47 39 32 32 41
35 36 40 40 36 35 35 36 34 35 33 36 39 41 43 45 48 51 57 64 69 72 72 69 65 63 59 56 56 55 54 49 52 54 57 58 60 61 62 60 57 53 47 38 33 31 32 32 34
38 37 37 41 40 40 39 35 33 36 37 31 34 36 40 45 54 59 63 58 58 60 59 55 59 58 52 50 53 50 55 58 61 69 70 70 66 62 58 52 45 38 33 31 31 29 29 32 33
41 36 35 32 37 36 35 32 43 37 36 39 38 41 45 53 60 57 52 56 57 54 51 53 53 51 48 49 54 59 63 68 70 71 70 68 62 54 50 46 39 34 31 30 29 32 34 38 42
39 34 37 42 41 38 34 31 34 35 33 36 41 43 49 55 54 51 54 57 56 56 52 49 50 51 54 59 61 64 64 66 66 63 59 55 51 51 50 46 37 32 30 31 33 34 41 50 54
36 39 39 40 40 37 34 30 24 28 29 33 39 45 49 51 51 54 56 58 57 56 54 52 55 56 59 61 61 62 62 63 64 58 49 49 48 43 38 33 31 32 31 35 42 48 45 43 47
37 36 34 35 37 31 33 27 27 28 29 36 43 46 48 50 52 53 54 58 59 58 54 57 59 60 60 59 63 68 72 64 62 55 50 48 41 36 33 30 30 31 35 43 49 50 47 46 43
33 31 31 34 37 35 25 28 27 29 32 37 42 44 46 47 49 51 55 57 59 57 57 59 59 63 61 63 77 89 69 58 57 51 51 43 36 33 32 33 33 41 41 44 54 54 47 47 48
29 29 32 31 38 34 25 23 23 26 28 32 37 38 41 44 48 53 56 58 57 57 60 62 63 65 67 79 87 74 56 56 55 50 43 39 36 35 33 34 41 43 45 52 55 48 58 60 55
33 31 30 31 34 26 22 18 19 21 24 27 30 35 40 43 46 51 53 55 57 62 63 64 65 70 76 75 59 56 57 56 50 43 42 39 38 35 32 32 37 40 39 40 49 60 60 60 58
32 33 30 28 28 31 34 18 17 19 22 25 29 33 39 44 46 51 52 55 60 63 64 69 69 72 73 74 59 52 53 49 46 46 43 41 39 35 34 33 36 39 46 50 57 60 57 58 64